Location: doobydoo
(53.3403°N, 2.6908°W)
Time: 14:54:20
(UTC+00:00)

ISS - Pass Details

Date: 27 December 2021
Orbit: 413 x 422 km, 51.6° (Epoch: 19 January)

Event Time Altitude Azimuth Distance (km) Brightness Sun altitude
Exits shadow 06:42:34 23° 255° (WSW) 961 -2.4 -14.1°
Maximum altitude 06:44:32 66° 177° (S) 466 -3.5 -13.9°
Drops below altitude 10° 06:47:54 10° 95° (E) 1,513 0.3 -13.4°
Sets 06:50:01 0° 93° (E) 2,380 1.6 -13.1°
